sat.trackr.live / text

‹ back to catalog

COSMOS 2520

NORAD 42907 · 2017-046A

PAYLOAD ACTIVE UNKNOWN

§ Identity

Operator
Country
CIS
Launch date
2017-08-16
Launch site
TYMSC
Launch vehicle
Mass (kg)
RCS (m²)

Purposes: comms

External: N2YO · Heavens-Above · Gunter

§ Orbital elements

Epoch: 2026-05-24T19:24:09.578880Z

Period
1,436.13 min
Inclination
0.0150°
Eccentricity
0.0001075
Mean motion
1.00269687 rev/d
Perigee alt
35,782.7 km
Apogee alt
35,791.7 km
Semi-major
42,165.3 km
B*
0.0000e+0
RAAN
61.0936°
Arg perigee
70.4175°
Mean anomaly
86.9343°
Rev number
3,216

§ Raw data

COSMOS 25201 42907U 17046A   26144.80844420  .00000000  00000+0  00000+0 0  99952 42907   0.0150  61.0936 0001075  70.4175  86.9343  1.00269687 32166

JSON: /api/v1/satellites/42907 · /tle

For live sub-satellite position, see the globe view (requires WebGL).

§ Visibility from observer

Set your observer location to see the next 7 days of passes ≥ 10°. The values pass through the URL so the page stays shareable.

No JS? Fill the form by hand. The geolocation button needs JavaScript.